This demonstration page uses our WeatherBlox Daily Observations layout. Learn more.

Left ArrowRight Arrow

Hourly Observations for November 15, 2021

Temp ( °F °C ) Dew Point ( °F °C ) Humidity (%) Winds ( mph kmh ) Pressure ( in mb ) Visibility ( mi km ) Precip ( " mm )
12:53 am 00:53 Cloudy 48 8.9 41 5 77 77 SW 8 13 29.72 1006 10 16 0.00 0.00
1:53 am 01:53 Cloudy 48 8.9 41 5 77 77 WNW 3 6 29.73 1007 10 16 0.00 0.00
2:53 am 02:53 Cloudy 47 8.3 42 5.6 83 83 SSW 7 11 29.74 1007 10 16 0.00 0.00
3:53 am 03:53 Mostly Cloudy 48 8.9 41 5 77 77 Calm 29.74 1007 10 16 0.00 0.00
4:53 am 04:53 Cloudy 46 7.8 41 5 83 83 N 3 6 29.74 1007 10 16 0.00 0.00
5:53 am 05:53 Clear 41 5 38 3.3 89 89 Calm 29.75 1007 10 16 0.00 0.00
6:53 am 06:53 Clear 41 5 38 3.3 89 89 Calm 29.74 1007 10 16 0.00 0.00
7:53 am 07:53 Sunny 38 3.3 37 2.8 97 97 ENE 5 7 29.75 1007 10 16 0.00 0.00
8:53 am 08:53 Sunny 40 4.4 38 3.3 93 93 E 6 9 29.75 1007 10 16 0.00 0.00
9:53 am 09:53 Sunny 42 5.6 39 3.9 89 89 NE 3 6 29.73 1007 10 16 0.00 0.00
10:53 am 10:53 Sunny 48 8.9 42 5.6 80 80 E 5 7 29.68 1005 10 16 0.00 0.00
11:53 am 11:53 Sunny 50 10 42 5.6 74 74 ESE 5 7 29.63 1004 10 16 0.00 0.00
12:53 pm 12:53 Sunny 52 11.1 44 6.7 75 75 NE 3 6 29.60 1002 10 16 0.00 0.00
1:53 pm 13:53 Sunny 63 17.2 30 -1.1 29 29 SW 15 24 29.54 1000 10 16 0.00 0.00
2:53 pm 14:53 Sunny 63 17.2 28 -2.2 27 27 SSW 17 28 29.50 999 10 16 0.00 0.00
3:53 pm 15:53 Sunny 60 15.6 29 -1.7 31 31 SW 14 22 29.47 998 10 16 0.00 0.00
4:53 pm 16:53 Clear 60 15.6 26 -3.3 27 27 SW 15 24 29.42 996 10 16 0.00 0.00
5:53 pm 17:53 Clear 58 14.4 25 -3.9 28 28 SW 16 26 29.38 995 10 16 0.00 0.00
6:53 pm 18:53 Clear 61 16.1 23 -5 23 23 SW 22 35 29.34 994 10 16 0.00 0.00
7:53 pm 19:53 Clear 57 13.9 24 -4.4 28 28 SW 16 26 29.30 992 10 16 0.00 0.00
8:53 pm 20:53 Clear 58 14.4 24 -4.4 27 27 SW 21 33 29.28 991 10 16 0.00 0.00
9:53 pm 21:53 Clear 58 14.4 25 -3.9 28 28 SW 18 30 29.26 991 10 16 0.00 0.00
10:53 pm 22:53 Clear 53 11.7 29 -1.7 40 40 WSW 17 28 29.25 991 10 16 0.00 0.00
11:53 pm 23:53 Clear 55 12.8 35 1.7 47 47 SW 30 48 29.24 990 10 16 0.00 0.00

Powered by AerisWeather